Tracking 31027 objects as of 19-Jul-2025
HD Live streaming from Space Station
objects crossing your sky now

ONEWEB-0050

Track ONEWEB-0050 now!
10-day predictions
ONEWEB-0050 is classified as:


NORAD ID: 45453
Int'l Code: 2020-020AF
Perigee: 599.0 km
Apogee: 606.2 km
Inclination: 88.0 °
Period: 96.6 minutes
Semi major axis: 6973 km
RCS: Unknown
Launch date: March 21, 2020
Source: United Kingdom (UK)
Launch site: TYURATAM MISSILE AND SPACE COMPLEX (TTMTR)
Your satellite tracking list
Your tracking list is empty




NASA's NSSDC Master Catalog

Two Line Element Set (TLE):
1 45453U 20020AF  25199.26076007  .00002464  00000-0  24816-3 0  9999
2 45453  87.9984 287.4747 0005198  94.6033 265.5790 14.90796323290666
Source of the keplerian elements: AFSPC